Location: Unspecified
(39.0670°S, 0.0000°E)
Time: 12:52:57
(UTC+00:00)

Envisat - Pass Details

Date: 28 June 2019
Orbit: 764 x 766 km, 98.1° (Epoch: 18 July)

Event Time Altitude Azimuth Distance (km) Brightness Sun altitude
Rises 05:28:31 0° 43° (NE) 3,228 7.2 -20.9°
Reaches altitude 10° 05:31:04 10° 54° (NE) 2,310 6.5 -20.4°
Maximum altitude 05:35:23 28° 112° (ESE) 1,411 4.9 -19.6°
Drops below altitude 10° 05:39:44 10° 170° (S) 2,336 5.4 -18.8°
Sets 05:42:19 0° 181° (S) 3,271 6.1 -18.3°
